Year,Month,Day,Hour,Minute,Value (Times are PST for temperature in C)
2014,09,05,00,00,9.70
2014,09,05,00,01,9.70
2014,09,05,00,02,9.70
2014,09,05,00,03,9.70
2014,09,05,00,04,9.70
2014,09,05,00,05,9.60
2014,09,05,00,06,9.60
2014,09,05,00,07,9.60
2014,09,05,00,08,9.60
2014,09,05,00,09,9.60
2014,09,05,00,10,9.60
2014,09,05,00,11,9.60
2014,09,05,00,12,9.60
2014,09,05,00,13,9.60
2014,09,05,00,14,9.60
2014,09,05,00,15,9.60
2014,09,05,00,16,9.50
2014,09,05,00,17,9.50
2014,09,05,00,18,9.50
2014,09,05,00,19,9.60
2014,09,05,00,20,9.60
2014,09,05,00,21,9.60
2014,09,05,00,22,9.60
2014,09,05,00,23,9.60
2014,09,05,00,24,9.50
2014,09,05,00,25,9.50
2014,09,05,00,26,9.50
2014,09,05,00,27,9.50
2014,09,05,00,28,9.50
2014,09,05,00,29,9.40
2014,09,05,00,30,9.40
2014,09,05,00,31,9.40
2014,09,05,00,32,9.40
2014,09,05,00,33,9.50
2014,09,05,00,34,9.50
2014,09,05,00,35,9.50
2014,09,05,00,36,9.50
2014,09,05,00,37,9.50
2014,09,05,00,38,9.50
2014,09,05,00,39,9.50
2014,09,05,00,40,9.50
2014,09,05,00,41,9.50
2014,09,05,00,42,9.50
2014,09,05,00,43,9.50
2014,09,05,00,44,9.50
2014,09,05,00,45,9.50
2014,09,05,00,46,9.50
2014,09,05,00,47,9.50
2014,09,05,00,48,9.50
2014,09,05,00,49,9.50
2014,09,05,00,50,9.40
2014,09,05,00,51,9.40
2014,09,05,00,52,9.40
2014,09,05,00,53,9.30
2014,09,05,00,54,9.30
2014,09,05,00,55,9.30
2014,09,05,00,56,9.30
2014,09,05,00,57,9.30
2014,09,05,00,58,9.30
2014,09,05,00,59,9.30
2014,09,05,01,00,9.20
2014,09,05,01,01,9.30
2014,09,05,01,02,9.20
2014,09,05,01,03,9.30
2014,09,05,01,04,9.30
2014,09,05,01,05,9.30
2014,09,05,01,06,9.30
2014,09,05,01,07,9.20
2014,09,05,01,08,9.20
2014,09,05,01,09,9.20
2014,09,05,01,10,9.20
2014,09,05,01,11,9.20
2014,09,05,01,12,9.20
2014,09,05,01,13,9.20
2014,09,05,01,14,9.10
2014,09,05,01,15,9.10
2014,09,05,01,16,9.10
2014,09,05,01,17,9.10
2014,09,05,01,18,9.10
2014,09,05,01,19,9.10
2014,09,05,01,20,9.20
2014,09,05,01,21,9.20
2014,09,05,01,22,9.20
2014,09,05,01,23,9.20
2014,09,05,01,24,9.20
2014,09,05,01,25,9.20
2014,09,05,01,26,9.20
2014,09,05,01,27,9.20
2014,09,05,01,28,9.20
2014,09,05,01,29,9.20
2014,09,05,01,30,9.10
2014,09,05,01,31,9.10
2014,09,05,01,32,9.10
2014,09,05,01,33,9.20
2014,09,05,01,34,9.20
2014,09,05,01,35,9.20
2014,09,05,01,36,9.10
2014,09,05,01,37,9.10
2014,09,05,01,38,9.10
2014,09,05,01,39,9.10
2014,09,05,01,40,9.10
2014,09,05,01,41,9.10
2014,09,05,01,42,9.10
2014,09,05,01,43,9.10
2014,09,05,01,44,9.10
2014,09,05,01,45,9.10
2014,09,05,01,46,9.10
2014,09,05,01,47,9.10
2014,09,05,01,48,9.10
2014,09,05,01,49,9.10
2014,09,05,01,50,9.10
2014,09,05,01,51,9.10
2014,09,05,01,52,9.10
2014,09,05,01,53,9.00
2014,09,05,01,54,9.00
2014,09,05,01,55,8.90
2014,09,05,01,56,8.90
2014,09,05,01,57,8.90
2014,09,05,01,58,8.80
2014,09,05,01,59,8.80
2014,09,05,02,00,8.90
2014,09,05,02,01,8.90
2014,09,05,02,02,8.90
2014,09,05,02,03,8.90
2014,09,05,02,04,8.90
2014,09,05,02,05,8.90
2014,09,05,02,06,8.80
2014,09,05,02,07,8.80
2014,09,05,02,08,8.80
2014,09,05,02,09,8.80
2014,09,05,02,10,8.90
2014,09,05,02,11,8.90
2014,09,05,02,12,8.90
2014,09,05,02,13,8.90
2014,09,05,02,14,8.90
2014,09,05,02,15,8.90
2014,09,05,02,16,8.90
2014,09,05,02,17,8.90
2014,09,05,02,18,8.90
2014,09,05,02,19,8.90
2014,09,05,02,20,9.00
2014,09,05,02,21,9.00
2014,09,05,02,22,9.00
2014,09,05,02,23,9.00
2014,09,05,02,24,9.00
2014,09,05,02,25,9.00
2014,09,05,02,26,9.00
2014,09,05,02,27,9.00
2014,09,05,02,28,9.10
2014,09,05,02,29,9.10
2014,09,05,02,30,9.10
2014,09,05,02,31,9.10
2014,09,05,02,32,9.10
2014,09,05,02,33,9.00
2014,09,05,02,34,8.90
2014,09,05,02,35,8.90
2014,09,05,02,36,8.90
2014,09,05,02,37,8.90
2014,09,05,02,38,8.90
2014,09,05,02,39,8.90
2014,09,05,02,40,8.90
2014,09,05,02,41,8.90
2014,09,05,02,42,8.90
2014,09,05,02,43,8.90
2014,09,05,02,44,8.90
2014,09,05,02,45,8.90
2014,09,05,02,46,8.80
2014,09,05,02,47,8.80
2014,09,05,02,48,8.80
2014,09,05,02,49,8.80
2014,09,05,02,50,8.70
2014,09,05,02,51,8.70
2014,09,05,02,52,8.70
2014,09,05,02,53,8.70
2014,09,05,02,54,8.70
2014,09,05,02,55,8.70
2014,09,05,02,56,8.70
2014,09,05,02,57,8.70
2014,09,05,02,58,8.70
2014,09,05,02,59,8.60
2014,09,05,03,00,8.60
2014,09,05,03,01,8.60
2014,09,05,03,02,8.60
2014,09,05,03,03,8.60
2014,09,05,03,04,8.60
2014,09,05,03,05,8.50
2014,09,05,03,06,8.50
2014,09,05,03,07,8.50
2014,09,05,03,08,8.50
2014,09,05,03,09,8.40
2014,09,05,03,10,8.40
2014,09,05,03,11,8.40
2014,09,05,03,12,8.40
2014,09,05,03,13,8.40
2014,09,05,03,14,8.40
2014,09,05,03,15,8.40
2014,09,05,03,16,8.40
2014,09,05,03,17,8.40
2014,09,05,03,18,8.40
2014,09,05,03,19,8.40
2014,09,05,03,20,8.40
2014,09,05,03,21,8.40
2014,09,05,03,22,8.30
2014,09,05,03,23,8.30
2014,09,05,03,24,8.30
2014,09,05,03,25,8.30
2014,09,05,03,26,8.30
2014,09,05,03,27,8.30
2014,09,05,03,28,8.30
2014,09,05,03,29,8.30
2014,09,05,03,30,8.30
2014,09,05,03,31,8.30
2014,09,05,03,32,8.30
2014,09,05,03,33,8.20
2014,09,05,03,34,8.20
2014,09,05,03,35,8.20
2014,09,05,03,36,8.20
2014,09,05,03,37,8.20
2014,09,05,03,38,8.20
2014,09,05,03,39,8.20
2014,09,05,03,40,8.20
2014,09,05,03,41,8.20
2014,09,05,03,42,8.20
2014,09,05,03,43,8.20
2014,09,05,03,44,8.20
2014,09,05,03,45,8.20
2014,09,05,03,46,8.20
2014,09,05,03,47,8.20
2014,09,05,03,48,8.20
2014,09,05,03,49,8.20
2014,09,05,03,50,8.20
2014,09,05,03,51,8.20
2014,09,05,03,52,8.10
2014,09,05,03,53,8.20
2014,09,05,03,54,8.20
2014,09,05,03,55,8.20
2014,09,05,03,56,8.20
2014,09,05,03,57,8.20
2014,09,05,03,58,8.20
2014,09,05,03,59,8.30
2014,09,05,04,00,8.30
2014,09,05,04,01,8.20
2014,09,05,04,02,8.20
2014,09,05,04,03,8.20
2014,09,05,04,04,8.20
2014,09,05,04,05,8.20
2014,09,05,04,06,8.10
2014,09,05,04,07,8.10
2014,09,05,04,08,8.10
2014,09,05,04,09,8.10
2014,09,05,04,10,8.10
2014,09,05,04,11,8.10
2014,09,05,04,12,8.10
2014,09,05,04,13,8.10
2014,09,05,04,14,8.10
2014,09,05,04,15,8.10
2014,09,05,04,16,8.10
2014,09,05,04,17,8.10
2014,09,05,04,18,8.10
2014,09,05,04,19,8.10
2014,09,05,04,20,8.10
2014,09,05,04,21,8.10
2014,09,05,04,22,8.10
2014,09,05,04,23,8.10
2014,09,05,04,24,8.10
2014,09,05,04,25,8.10
2014,09,05,04,26,8.10
2014,09,05,04,27,8.10
2014,09,05,04,28,8.10
2014,09,05,04,29,8.10
2014,09,05,04,30,8.10
2014,09,05,04,31,8.10
2014,09,05,04,32,8.10
2014,09,05,04,33,8.10
2014,09,05,04,34,8.10
2014,09,05,04,35,8.10
2014,09,05,04,36,8.10
2014,09,05,04,37,8.00
2014,09,05,04,38,8.00
2014,09,05,04,39,8.00
2014,09,05,04,40,8.00
2014,09,05,04,41,8.00
2014,09,05,04,42,8.00
2014,09,05,04,43,8.00
2014,09,05,04,44,8.00
2014,09,05,04,45,8.00
2014,09,05,04,46,7.90
2014,09,05,04,47,7.90
2014,09,05,04,48,7.90
2014,09,05,04,49,7.90
2014,09,05,04,50,7.90
2014,09,05,04,51,7.90
2014,09,05,04,52,7.90
2014,09,05,04,53,7.90
2014,09,05,04,54,7.90
2014,09,05,04,55,7.90
2014,09,05,04,56,7.90
2014,09,05,04,57,7.90
2014,09,05,04,58,7.90
2014,09,05,04,59,7.90
2014,09,05,05,00,7.90
2014,09,05,05,01,7.90
2014,09,05,05,02,7.90
2014,09,05,05,03,7.90
2014,09,05,05,04,7.90
2014,09,05,05,05,7.90
2014,09,05,05,06,7.90
2014,09,05,05,07,7.90
2014,09,05,05,08,7.90
2014,09,05,05,09,7.90
2014,09,05,05,10,7.90
2014,09,05,05,11,7.90
2014,09,05,05,12,7.90
2014,09,05,05,13,7.90
2014,09,05,05,14,7.90
2014,09,05,05,15,7.90
2014,09,05,05,16,7.90
2014,09,05,05,17,7.90
2014,09,05,05,18,7.90
2014,09,05,05,19,7.90
2014,09,05,05,20,7.90
2014,09,05,05,21,7.80
2014,09,05,05,22,7.80
2014,09,05,05,23,7.80
2014,09,05,05,24,7.80
2014,09,05,05,25,7.80
2014,09,05,05,26,7.80
2014,09,05,05,27,7.80
2014,09,05,05,28,7.80
2014,09,05,05,29,7.80
2014,09,05,05,30,7.80
2014,09,05,05,31,7.80
2014,09,05,05,32,7.80
2014,09,05,05,33,7.80
2014,09,05,05,34,7.80
2014,09,05,05,35,7.80
2014,09,05,05,36,7.80
2014,09,05,05,37,7.80
2014,09,05,05,38,7.80
2014,09,05,05,39,7.80
2014,09,05,05,40,7.80
2014,09,05,05,41,7.90
2014,09,05,05,42,7.90
2014,09,05,05,43,7.90
2014,09,05,05,44,7.90
2014,09,05,05,45,7.90
2014,09,05,05,46,7.90
2014,09,05,05,47,7.90
2014,09,05,05,48,7.90
2014,09,05,05,49,7.90
2014,09,05,05,50,8.00
2014,09,05,05,51,8.00
2014,09,05,05,52,8.00
2014,09,05,05,53,8.00
2014,09,05,05,54,7.90
2014,09,05,05,55,7.90
2014,09,05,05,56,7.90
2014,09,05,05,57,7.90
2014,09,05,05,58,7.80
2014,09,05,05,59,7.80
2014,09,05,06,00,7.80
2014,09,05,06,01,7.80
2014,09,05,06,02,7.80
2014,09,05,06,03,7.80
2014,09,05,06,04,7.70
2014,09,05,06,05,7.70
2014,09,05,06,06,7.70
2014,09,05,06,07,7.70
2014,09,05,06,08,7.70
2014,09,05,06,09,7.70
2014,09,05,06,10,7.70
2014,09,05,06,11,7.70
2014,09,05,06,12,7.70
2014,09,05,06,13,7.70
2014,09,05,06,14,7.70
2014,09,05,06,15,7.70
2014,09,05,06,16,7.60
2014,09,05,06,17,7.60
2014,09,05,06,18,7.60
2014,09,05,06,19,7.60
2014,09,05,06,20,7.60
2014,09,05,06,21,7.60
2014,09,05,06,22,7.60
2014,09,05,06,23,7.60
2014,09,05,06,24,7.60
2014,09,05,06,25,7.60
2014,09,05,06,26,7.60
2014,09,05,06,27,7.50
2014,09,05,06,28,7.50
2014,09,05,06,29,7.50
2014,09,05,06,30,7.50
2014,09,05,06,31,7.50
2014,09,05,06,32,7.50
2014,09,05,06,33,7.50
2014,09,05,06,34,7.50
2014,09,05,06,35,7.50
2014,09,05,06,36,7.50
2014,09,05,06,37,7.50
2014,09,05,06,38,7.50
2014,09,05,06,39,7.50
2014,09,05,06,40,7.50
2014,09,05,06,41,7.50
2014,09,05,06,42,7.50
2014,09,05,06,43,7.50
2014,09,05,06,44,7.50
2014,09,05,06,45,7.50
2014,09,05,06,46,7.40
2014,09,05,06,47,7.40
2014,09,05,06,48,7.40
2014,09,05,06,49,7.40
2014,09,05,06,50,7.40
2014,09,05,06,51,7.50
2014,09,05,06,52,7.50
2014,09,05,06,53,7.50
2014,09,05,06,54,7.50
2014,09,05,06,55,7.50
2014,09,05,06,56,7.50
2014,09,05,06,57,7.50
2014,09,05,06,58,7.60
2014,09,05,06,59,7.60
2014,09,05,07,00,7.60
2014,09,05,07,01,7.60
2014,09,05,07,02,7.60
2014,09,05,07,03,7.70
2014,09,05,07,04,7.70
2014,09,05,07,05,7.70
2014,09,05,07,06,7.70
2014,09,05,07,07,7.70
2014,09,05,07,08,7.70
2014,09,05,07,09,7.70
2014,09,05,07,10,7.70
2014,09,05,07,11,7.70
2014,09,05,07,12,7.70
2014,09,05,07,13,7.70
2014,09,05,07,14,7.70
2014,09,05,07,15,7.70
2014,09,05,07,16,7.70
2014,09,05,07,17,7.80
2014,09,05,07,18,7.80
2014,09,05,07,19,7.80
2014,09,05,07,20,7.90
2014,09,05,07,21,7.90
2014,09,05,07,22,7.90
2014,09,05,07,23,8.00
2014,09,05,07,24,8.00
2014,09,05,07,25,8.00
2014,09,05,07,26,8.10
2014,09,05,07,27,8.10
2014,09,05,07,28,8.10
2014,09,05,07,29,8.20
2014,09,05,07,30,8.20
2014,09,05,07,31,8.30
2014,09,05,07,32,8.30
2014,09,05,07,33,8.40
2014,09,05,07,34,8.50
2014,09,05,07,35,8.60
2014,09,05,07,36,8.60
2014,09,05,07,37,8.70
2014,09,05,07,38,8.80
2014,09,05,07,39,8.80
2014,09,05,07,40,8.90
2014,09,05,07,41,9.00
2014,09,05,07,42,9.00
2014,09,05,07,43,9.10
2014,09,05,07,44,9.10
2014,09,05,07,45,9.20
2014,09,05,07,46,9.20
2014,09,05,07,47,9.30
2014,09,05,07,48,9.40
2014,09,05,07,49,9.50
2014,09,05,07,50,9.50
2014,09,05,07,51,9.60
2014,09,05,07,52,9.60
2014,09,05,07,53,9.60
2014,09,05,07,54,9.60
2014,09,05,07,55,9.70
2014,09,05,07,56,9.70
2014,09,05,07,57,9.80
2014,09,05,07,58,9.80
2014,09,05,07,59,9.80
2014,09,05,08,00,9.80
2014,09,05,08,01,9.90
2014,09,05,08,02,9.90
2014,09,05,08,03,9.90
2014,09,05,08,04,10.00
2014,09,05,08,05,10.00
2014,09,05,08,06,10.10
2014,09,05,08,07,10.10
2014,09,05,08,08,10.20
2014,09,05,08,09,10.20
2014,09,05,08,10,10.30
2014,09,05,08,11,10.30
2014,09,05,08,12,10.40
2014,09,05,08,13,10.50
2014,09,05,08,14,10.50
2014,09,05,08,15,10.60
2014,09,05,08,16,10.70
2014,09,05,08,17,10.70
2014,09,05,08,18,10.80
2014,09,05,08,19,10.80
2014,09,05,08,20,10.80
2014,09,05,08,21,10.90
2014,09,05,08,22,10.90
2014,09,05,08,23,10.90
2014,09,05,08,24,11.00
2014,09,05,08,25,11.00
2014,09,05,08,26,11.10
2014,09,05,08,27,11.10
2014,09,05,08,28,11.10
2014,09,05,08,29,11.20
2014,09,05,08,30,11.20
2014,09,05,08,31,11.20
2014,09,05,08,32,11.30
2014,09,05,08,33,11.30
2014,09,05,08,34,11.40
2014,09,05,08,35,11.50
2014,09,05,08,36,11.50
2014,09,05,08,37,11.60
2014,09,05,08,38,11.70
2014,09,05,08,39,11.80
2014,09,05,08,40,11.90
2014,09,05,08,41,12.10
2014,09,05,08,42,12.20
2014,09,05,08,43,12.30
2014,09,05,08,44,12.40
2014,09,05,08,45,12.50
2014,09,05,08,46,12.70
2014,09,05,08,47,12.80
2014,09,05,08,48,12.90
2014,09,05,08,49,13.10
2014,09,05,08,50,13.20
2014,09,05,08,51,13.30
2014,09,05,08,52,13.40
2014,09,05,08,53,13.50
2014,09,05,08,54,13.70
2014,09,05,08,55,13.80
2014,09,05,08,56,13.90
2014,09,05,08,57,14.00
2014,09,05,08,58,14.10
2014,09,05,08,59,14.20
2014,09,05,09,00,14.30
2014,09,05,09,01,14.40
2014,09,05,09,02,14.50
2014,09,05,09,03,14.60
2014,09,05,09,04,14.70
2014,09,05,09,05,14.70
2014,09,05,09,06,14.80
2014,09,05,09,07,14.90
2014,09,05,09,08,14.90
2014,09,05,09,09,15.00
2014,09,05,09,10,15.10
2014,09,05,09,11,15.20
2014,09,05,09,12,15.20
2014,09,05,09,13,15.30
2014,09,05,09,14,15.40
2014,09,05,09,15,15.50
2014,09,05,09,16,15.60
2014,09,05,09,17,15.70
2014,09,05,09,18,15.80
2014,09,05,09,19,15.90
2014,09,05,09,20,16.00
2014,09,05,09,21,16.10
2014,09,05,09,22,16.10
2014,09,05,09,23,16.20
2014,09,05,09,24,16.30
2014,09,05,09,25,16.40
2014,09,05,09,26,16.50
2014,09,05,09,27,16.60
2014,09,05,09,28,16.60
2014,09,05,09,29,16.70
2014,09,05,09,30,16.80
2014,09,05,09,31,16.80
2014,09,05,09,32,16.80
2014,09,05,09,33,16.80
2014,09,05,09,34,16.80
2014,09,05,09,35,16.90
2014,09,05,09,36,16.90
2014,09,05,09,37,16.90
2014,09,05,09,38,16.90
2014,09,05,09,39,16.90
2014,09,05,09,40,16.90
2014,09,05,09,41,16.90
2014,09,05,09,42,16.90
2014,09,05,09,43,16.90
2014,09,05,09,44,16.90
2014,09,05,09,45,16.90
2014,09,05,09,46,17.00
2014,09,05,09,47,17.00
2014,09,05,09,48,17.00
2014,09,05,09,49,17.00
2014,09,05,09,50,17.00
2014,09,05,09,51,17.00
2014,09,05,09,52,17.00
2014,09,05,09,53,17.10
2014,09,05,09,54,17.10
2014,09,05,09,55,17.10
2014,09,05,09,56,17.10
2014,09,05,09,57,17.10
2014,09,05,09,58,17.10
2014,09,05,09,59,17.10
2014,09,05,10,00,17.10
2014,09,05,10,01,17.10
2014,09,05,10,02,17.10
2014,09,05,10,03,17.10
2014,09,05,10,04,17.10
2014,09,05,10,05,17.20
2014,09,05,10,06,17.20
2014,09,05,10,07,17.30
2014,09,05,10,08,17.30
2014,09,05,10,09,17.30
2014,09,05,10,10,17.30
2014,09,05,10,11,17.20
2014,09,05,10,12,17.10
2014,09,05,10,13,17.10
2014,09,05,10,14,17.10
2014,09,05,10,15,17.00
2014,09,05,10,16,17.00
2014,09,05,10,17,17.00
2014,09,05,10,18,16.90
2014,09,05,10,19,16.90
2014,09,05,10,20,16.90
2014,09,05,10,21,16.90
2014,09,05,10,22,16.90
2014,09,05,10,23,17.00
2014,09,05,10,24,16.90
2014,09,05,10,25,16.90
2014,09,05,10,26,17.00
2014,09,05,10,27,17.00
2014,09,05,10,28,17.10
2014,09,05,10,29,17.10
2014,09,05,10,30,17.10
2014,09,05,10,31,17.20
2014,09,05,10,32,17.20
2014,09,05,10,33,17.20
2014,09,05,10,34,17.30
2014,09,05,10,35,17.30
2014,09,05,10,36,17.30
2014,09,05,10,37,17.30
2014,09,05,10,38,17.40
2014,09,05,10,39,17.40
2014,09,05,10,40,17.40
2014,09,05,10,41,17.40
2014,09,05,10,42,17.40
2014,09,05,10,43,17.50
2014,09,05,10,44,17.50
2014,09,05,10,45,17.50
2014,09,05,10,46,17.60
2014,09,05,10,47,17.60
2014,09,05,10,48,17.70
2014,09,05,10,49,17.70
2014,09,05,10,50,17.70
2014,09,05,10,51,17.80
2014,09,05,10,52,17.80
2014,09,05,10,53,17.80
2014,09,05,10,54,17.90
2014,09,05,10,55,17.90
2014,09,05,10,56,17.90
2014,09,05,10,57,18.00
2014,09,05,10,58,18.00
2014,09,05,10,59,18.10
2014,09,05,11,00,18.10
2014,09,05,11,01,18.00
2014,09,05,11,02,18.00
2014,09,05,11,03,18.00
2014,09,05,11,04,18.00
2014,09,05,11,05,18.00
2014,09,05,11,06,18.00
2014,09,05,11,07,18.10
2014,09,05,11,08,18.10
2014,09,05,11,09,18.20
2014,09,05,11,10,18.20
2014,09,05,11,11,18.30
2014,09,05,11,12,18.30
2014,09,05,11,13,18.40
2014,09,05,11,14,18.40
2014,09,05,11,15,18.40
2014,09,05,11,16,18.40
2014,09,05,11,17,18.40
2014,09,05,11,18,18.40
2014,09,05,11,19,18.30
2014,09,05,11,20,18.30
2014,09,05,11,21,18.30
2014,09,05,11,22,18.20
2014,09,05,11,23,18.20
2014,09,05,11,24,18.30
2014,09,05,11,25,18.30
2014,09,05,11,26,18.30
2014,09,05,11,27,18.40
2014,09,05,11,28,18.50
2014,09,05,11,29,18.60
2014,09,05,11,30,18.60
2014,09,05,11,31,18.70
2014,09,05,11,32,18.70
2014,09,05,11,33,18.70
2014,09,05,11,34,18.80
2014,09,05,11,35,18.80
2014,09,05,11,36,18.90
2014,09,05,11,37,18.90
2014,09,05,11,38,19.00
2014,09,05,11,39,19.10
2014,09,05,11,40,19.10
2014,09,05,11,41,19.20
2014,09,05,11,42,19.30
2014,09,05,11,43,19.40
2014,09,05,11,44,19.40
2014,09,05,11,45,19.50
2014,09,05,11,46,19.60
2014,09,05,11,47,19.70
2014,09,05,11,48,19.80
2014,09,05,11,49,19.80
2014,09,05,11,50,19.90
2014,09,05,11,51,19.90
2014,09,05,11,52,19.90
2014,09,05,11,53,19.90
2014,09,05,11,54,20.00
2014,09,05,11,55,20.00
2014,09,05,11,56,20.10
2014,09,05,11,57,20.10
2014,09,05,11,58,20.10
2014,09,05,11,59,20.10
2014,09,05,12,00,20.10
2014,09,05,12,01,20.00
2014,09,05,12,02,20.00
2014,09,05,12,03,19.90
2014,09,05,12,04,20.00
2014,09,05,12,05,20.00
2014,09,05,12,06,20.00
2014,09,05,12,07,20.10
2014,09,05,12,08,20.10
2014,09,05,12,09,20.20
2014,09,05,12,10,20.30
2014,09,05,12,11,20.40
2014,09,05,12,12,20.50
2014,09,05,12,13,20.60
2014,09,05,12,14,20.70
2014,09,05,12,15,20.70
2014,09,05,12,16,20.80
2014,09,05,12,17,20.90
2014,09,05,12,18,20.90
2014,09,05,12,19,21.00
2014,09,05,12,20,21.10
2014,09,05,12,21,21.10
2014,09,05,12,22,21.20
2014,09,05,12,23,21.20
2014,09,05,12,24,21.30
2014,09,05,12,25,21.30
2014,09,05,12,26,21.30
2014,09,05,12,27,21.30
2014,09,05,12,28,21.40
2014,09,05,12,29,21.40
2014,09,05,12,30,21.50
2014,09,05,12,31,21.50
2014,09,05,12,32,21.60
2014,09,05,12,33,21.60
2014,09,05,12,34,21.60
2014,09,05,12,35,21.70
2014,09,05,12,36,21.70
2014,09,05,12,37,21.70
2014,09,05,12,38,21.70
2014,09,05,12,39,21.70
2014,09,05,12,40,21.60
2014,09,05,12,41,21.60
2014,09,05,12,42,21.60
2014,09,05,12,43,21.50
2014,09,05,12,44,21.40
2014,09,05,12,45,21.40
2014,09,05,12,46,21.30
2014,09,05,12,47,21.30
2014,09,05,12,48,21.30
2014,09,05,12,49,21.30
2014,09,05,12,50,21.30
2014,09,05,12,51,21.40
2014,09,05,12,52,21.40
2014,09,05,12,53,21.40
2014,09,05,12,54,21.50
2014,09,05,12,55,21.50
2014,09,05,12,56,21.50
2014,09,05,12,57,21.60
2014,09,05,12,58,21.60
2014,09,05,12,59,21.60
2014,09,05,13,00,21.60
2014,09,05,13,01,21.60
2014,09,05,13,02,21.60
2014,09,05,13,03,21.60
2014,09,05,13,04,21.60
2014,09,05,13,05,21.70
2014,09,05,13,06,21.70
2014,09,05,13,07,21.80
2014,09,05,13,08,21.80
2014,09,05,13,09,21.90
2014,09,05,13,10,22.00
2014,09,05,13,11,22.00
2014,09,05,13,12,22.10
2014,09,05,13,13,22.10
2014,09,05,13,14,22.20
2014,09,05,13,15,22.20
2014,09,05,13,16,22.30
2014,09,05,13,17,22.30
2014,09,05,13,18,22.40
2014,09,05,13,19,22.40
2014,09,05,13,20,22.40
2014,09,05,13,21,22.50
2014,09,05,13,22,22.50
2014,09,05,13,23,22.50
2014,09,05,13,24,22.40
2014,09,05,13,25,22.40
2014,09,05,13,26,22.40
2014,09,05,13,27,22.30
2014,09,05,13,28,22.30
2014,09,05,13,29,22.30
2014,09,05,13,30,22.20
2014,09,05,13,31,22.20
2014,09,05,13,32,22.20
2014,09,05,13,33,22.30
2014,09,05,13,34,22.40
2014,09,05,13,35,22.40
2014,09,05,13,36,22.50
2014,09,05,13,37,22.50
2014,09,05,13,38,22.60
2014,09,05,13,39,22.50
2014,09,05,13,40,22.50
2014,09,05,13,41,22.50
2014,09,05,13,42,22.50
2014,09,05,13,43,22.50
2014,09,05,13,44,22.50
2014,09,05,13,45,22.40
2014,09,05,13,46,22.40
2014,09,05,13,47,22.30
2014,09,05,13,48,22.30
2014,09,05,13,49,22.30
2014,09,05,13,50,22.20
2014,09,05,13,51,22.20
2014,09,05,13,52,22.20
2014,09,05,13,53,22.10
2014,09,05,13,54,22.00
2014,09,05,13,55,22.00
2014,09,05,13,56,22.00
2014,09,05,13,57,22.00
2014,09,05,13,58,21.90
2014,09,05,13,59,21.80
2014,09,05,14,00,21.80
2014,09,05,14,01,21.70
2014,09,05,14,02,21.60
2014,09,05,14,03,21.60
2014,09,05,14,04,21.50
2014,09,05,14,05,21.50
2014,09,05,14,06,21.50
2014,09,05,14,07,21.40
2014,09,05,14,08,21.40
2014,09,05,14,09,21.50
2014,09,05,14,10,21.50
2014,09,05,14,11,21.50
2014,09,05,14,12,21.50
2014,09,05,14,13,21.50
2014,09,05,14,14,21.50
2014,09,05,14,15,21.60
2014,09,05,14,16,21.60
2014,09,05,14,17,21.60
2014,09,05,14,18,21.60
2014,09,05,14,19,21.60
2014,09,05,14,20,21.70
2014,09,05,14,21,21.70
2014,09,05,14,22,21.70
2014,09,05,14,23,21.70
2014,09,05,14,24,21.70
2014,09,05,14,25,21.70
2014,09,05,14,26,21.70
2014,09,05,14,27,21.70
2014,09,05,14,28,21.70
2014,09,05,14,29,21.70
2014,09,05,14,30,21.70
2014,09,05,14,31,21.70
2014,09,05,14,32,21.70
2014,09,05,14,33,21.80
2014,09,05,14,34,21.80
2014,09,05,14,35,21.90
2014,09,05,14,36,22.00
2014,09,05,14,37,22.10
2014,09,05,14,38,22.20
2014,09,05,14,39,22.30
2014,09,05,14,40,22.30
2014,09,05,14,41,22.40
2014,09,05,14,42,22.50
2014,09,05,14,43,22.60
2014,09,05,14,44,22.60
2014,09,05,14,45,22.60
2014,09,05,14,46,22.70
2014,09,05,14,47,22.70
2014,09,05,14,48,22.60
2014,09,05,14,49,22.60
2014,09,05,14,50,22.60
2014,09,05,14,51,22.60
2014,09,05,14,52,22.60
2014,09,05,14,53,22.70
2014,09,05,14,54,22.70
2014,09,05,14,55,22.70
2014,09,05,14,56,22.70
2014,09,05,14,57,22.70
2014,09,05,14,58,22.70
2014,09,05,14,59,22.70
2014,09,05,15,00,22.70
2014,09,05,15,01,22.70
2014,09,05,15,02,22.70
2014,09,05,15,03,22.70
2014,09,05,15,04,22.70
2014,09,05,15,05,22.70
2014,09,05,15,06,22.70
2014,09,05,15,07,22.70
2014,09,05,15,08,22.70
2014,09,05,15,09,22.70
2014,09,05,15,10,22.70
2014,09,05,15,11,22.70
2014,09,05,15,12,22.70
2014,09,05,15,13,22.70
2014,09,05,15,14,22.70
2014,09,05,15,15,22.70
2014,09,05,15,16,22.60
2014,09,05,15,17,22.60
2014,09,05,15,18,22.60
2014,09,05,15,19,22.60
2014,09,05,15,20,22.50
2014,09,05,15,21,22.50
2014,09,05,15,22,22.50
2014,09,05,15,23,22.40
2014,09,05,15,24,22.40
2014,09,05,15,25,22.40
2014,09,05,15,26,22.40
2014,09,05,15,27,22.40
2014,09,05,15,28,22.40
2014,09,05,15,29,22.40
2014,09,05,15,30,22.40
2014,09,05,15,31,22.50
2014,09,05,15,32,22.50
2014,09,05,15,33,22.60
2014,09,05,15,34,22.60
2014,09,05,15,35,22.60
2014,09,05,15,36,22.60
2014,09,05,15,37,22.60
2014,09,05,15,38,22.60
2014,09,05,15,39,22.60
2014,09,05,15,40,22.70
2014,09,05,15,41,22.70
2014,09,05,15,42,22.80
2014,09,05,15,43,22.80
2014,09,05,15,44,22.80
2014,09,05,15,45,22.80
2014,09,05,15,46,22.80
2014,09,05,15,47,22.80
2014,09,05,15,48,22.80
2014,09,05,15,49,22.80
2014,09,05,15,50,22.80
2014,09,05,15,51,22.80
2014,09,05,15,52,22.80
2014,09,05,15,53,22.70
2014,09,05,15,54,22.60
2014,09,05,15,55,22.50
2014,09,05,15,56,22.40
2014,09,05,15,57,22.40
2014,09,05,15,58,22.30
2014,09,05,15,59,22.30
2014,09,05,16,00,22.30
2014,09,05,16,01,22.30
2014,09,05,16,02,22.30
2014,09,05,16,03,22.30
2014,09,05,16,04,22.30
2014,09,05,16,05,22.30
2014,09,05,16,06,22.30
2014,09,05,16,07,22.30
2014,09,05,16,08,22.30
2014,09,05,16,09,22.30
2014,09,05,16,10,22.40
2014,09,05,16,11,22.40
2014,09,05,16,12,22.40
2014,09,05,16,13,22.40
2014,09,05,16,14,22.40
2014,09,05,16,15,22.40
2014,09,05,16,16,22.40
2014,09,05,16,17,22.40
2014,09,05,16,18,22.40
2014,09,05,16,19,22.40
2014,09,05,16,20,22.40
2014,09,05,16,21,22.40
2014,09,05,16,22,22.50
2014,09,05,16,23,22.50
2014,09,05,16,24,22.40
2014,09,05,16,25,22.40
2014,09,05,16,26,22.30
2014,09,05,16,27,22.30
2014,09,05,16,28,22.30
2014,09,05,16,29,22.30
2014,09,05,16,30,22.30
2014,09,05,16,31,22.30
2014,09,05,16,32,22.20
2014,09,05,16,33,22.20
2014,09,05,16,34,22.20
2014,09,05,16,35,22.10
2014,09,05,16,36,22.10
2014,09,05,16,37,22.10
2014,09,05,16,38,22.10
2014,09,05,16,39,22.10
2014,09,05,16,40,22.20
2014,09,05,16,41,22.20
2014,09,05,16,42,22.20
2014,09,05,16,43,22.20
2014,09,05,16,44,22.20
2014,09,05,16,45,22.20
2014,09,05,16,46,22.10
2014,09,05,16,47,22.10
2014,09,05,16,48,22.10
2014,09,05,16,49,22.10
2014,09,05,16,50,22.10
2014,09,05,16,51,22.00
2014,09,05,16,52,22.00
2014,09,05,16,53,21.90
2014,09,05,16,54,21.90
2014,09,05,16,55,21.80
2014,09,05,16,56,21.70
2014,09,05,16,57,21.60
2014,09,05,16,58,21.50
2014,09,05,16,59,21.50
2014,09,05,17,00,21.40
2014,09,05,17,01,21.30
2014,09,05,17,02,21.30
2014,09,05,17,03,21.30
2014,09,05,17,04,21.20
2014,09,05,17,05,21.20
2014,09,05,17,06,21.20
2014,09,05,17,07,21.10
2014,09,05,17,08,21.10
2014,09,05,17,09,21.10
2014,09,05,17,10,21.10
2014,09,05,17,11,21.10
2014,09,05,17,12,21.10
2014,09,05,17,13,21.10
2014,09,05,17,14,21.20
2014,09,05,17,15,21.20
2014,09,05,17,16,21.30
2014,09,05,17,17,21.20
2014,09,05,17,18,21.20
2014,09,05,17,19,21.20
2014,09,05,17,20,21.10
2014,09,05,17,21,21.00
2014,09,05,17,22,20.90
2014,09,05,17,23,20.80
2014,09,05,17,24,20.70
2014,09,05,17,25,20.60
2014,09,05,17,26,20.50
2014,09,05,17,27,20.40
2014,09,05,17,28,20.30
2014,09,05,17,29,20.20
2014,09,05,17,30,20.10
2014,09,05,17,31,20.00
2014,09,05,17,32,19.90
2014,09,05,17,33,19.90
2014,09,05,17,34,19.80
2014,09,05,17,35,19.80
2014,09,05,17,36,19.80
2014,09,05,17,37,19.70
2014,09,05,17,38,19.70
2014,09,05,17,39,19.70
2014,09,05,17,40,19.60